Погода в Кургане

Хотите узнать прогноз погоды в Кургане? Тогда Вам сюда: Погода в Кургане

Поиск расширенной информации на нашем сайте:

Полезная информация:

Новости сайта



02.01.2020
Опубликован Долгосрочный прогноз погоды по городам России и ближнего зарубежья на январь 2020 года.
Карты: Прогноз на январь и февраль 2020 года, Сравнение прогнозируемой аномалии приземной температуры воздуха на январь 2020 года по разным моделям.




Погода в Кургане - сегодня

Время (UTC), дата Ветер
(°,м/с) 
Видим.   Явления Облачность Т
(°С)
Тd
(°С)
f(%) Тe
(°С)
Pmin
(гПа)
dP
(гПа)
Po
(мм)
O2
(г/м3)
Тmin Tmax R s Состояние
почвы
09 16.01.21 160 (Ю) 20000 м    10/0 средняя, верхняя 
[Ac trans|Ci sp]
-6 -12.8 59 -7  1009.1  -2.8  750  310           
12 16.01.21 180 (Ю) 10 км    10/4 1000 м средняя 
[Sc|Ac und]
-6.9 -12.5 64 -8  1006.2  -2.9  748  310           
15 16.01.21 200 (Ю) 10 км    10/10 1000 м 
[Sc]
-7.4 -11.3 74 -10  1005  -1.2  747  310    -5.9       
18 16.01.21 210 (ЮЗ) 10 км    10/8 1000 м средняя 
[Sc|Ac und]
-8 -11 79 -10  1006.1  1.1  747  311           
21 16.01.21 200 (Ю) 10 км    4/0 верхняя 
[Ci fib]
-11.1 -13.2 84 -13  1007.2  748  315           
00 17.01.21 200 (Ю) 10 км    4/0 верхняя 
[Ci fib]
-11.8 -14.2 82 -14  1008.5  1.2  749  317           
03 17.01.21 200 (Ю) 10 км    8/0 средняя, верхняя 
[Ac trans|Ci fib]
-11.6 -14.6 78 -14  1007.7  -0.8  749  316  -12.1      25  равномерный
сухой снег
100% 
06 17.01.21 200 (Ю) 4{10}  20000 м    8/0 средняя, верхняя 
[Ac trans|Ci fib]
-11.2 -14.6 76 -15  1006.9  -0.8  748  316           
09 17.01.21 200 (Ю) 5{10}  20000 м    6/0 средняя, верхняя 
[Ac trans|Ci fib]
-8.9 -12.4 76 -13  1004.7  -2.1  746  312           
12 17.01.21 200 (Ю) 3{11}  10 км  слаб. ливневой снег  10/6 300 м кучево-дожд., средняя 
[Cb cap|Ac und]
-8.8 -11.6 80 -12  1003.5  -1.1  746  311           
15 17.01.21 210 (ЮЗ) 10 км  {ливн. осадки}  10/0 средняя 
[Ac und]
-8.8 -13.2 70 -12  1004.6  1.1  746  312    -8.3  0.0     
18 17.01.21 240 (ЮЗ) 10 км  {ливн. осадки}  8/0 средняя, верхняя 
[Ac trans|Ci fib]
-10.4 -16.9 59 -12  1007.4  2.7  748  315           
21 17.01.21 240 (ЮЗ) 10 км    3/0 верхняя 
[Ci fib]
-12.8 -18.4 63 -16  1009.6  2.1  750  318           
00 18.01.21 210 (ЮЗ) 10 км    ясно 
-17.9 -21.6 73 -18  1011.8  2.1  751  326           
03 18.01.21 190 (Ю) 10 км    ясно 
-19.1 -22.1 77 -19  1014.3  2.4  753  328  -19.3      25  равномерный
сухой снег
100% 
06 18.01.21 190 (Ю) 20000 м    ясно 
-18.3 -22 73 -19  1017.2  2.8  755  328  -19.6         
09 18.01.21 210 (ЮЗ) 20000 м    ясно 
-14.1 -20.1 60 -16  1018.2  1.2  756  323           
12 18.01.21 220 (ЮЗ) 10 км    ясно 
-16.1 -21 66 -16  1019.6  1.3  757  326           
15 18.01.21 180 (Ю) 10 км    ясно 
-19.4 -22.8 74 -20  1020.9  1.1  758  331    -14.1       
18 18.01.21 160 (Ю) 10 км    ясно 
-21.6 -24.5 77 -22  1021.4  0.4  758  334           
21 18.01.21 210 (ЮЗ) 10 км    ясно 
-22.5 -25.4 77 -25  1022.5  1.1  759  335           
00 19.01.21 210 (ЮЗ) 10 км    ясно 
-23.3 -26.3 76 -26  1023.4  0.8  760  337           
03 19.01.21 тихо ()   10 км    ясно 
-25.3 -28.5 75 -25  1023.1  -0.4  760  339  -25.3      24  равномерный
сухой снег
100% 
06 19.01.21 190 (Ю) 20000 м    10/0 верхняя 
[Ci fib]
-22.8 -26.1 74 -23  1024.4  1.4  761  336  -26.2         
09 19.01.21 360 (С) 20000 м    10/0 средняя 
[Ac und]
-19.7 -23.5 72 -20  1024.5  0.2  761  332           
Время (UTC), дата Ветер
(°,м/с) 
Видим.   Явления Облачность Т
(°С)
Тd
(°С)
f(%) Тe
(°С)
Pmin
(гПа)
dP
(гПа)
Po
(мм)
O2
(г/м3)
Тmin Tmax R s Состояние
почвы

Для получения пояснительной информации подведите курсор к названию столбца.

ПОГОДА в Кургане - архив

Всё, что Вы хотите узнать о погоде в Кургане - удобно и подробно!

Выберите нужную дату (начиная с 1 января 2019* года) и нажмите кнопку "Найти".
Будут отображены архивные сводки погоды по пункту Курган, начиная с указанной даты.


Отображать данные в формате CSV (для использования в таблицах Excel)


Внимание! Наш архив погоды предназначен исключительно для личного некоммерческого использования в познавательных целях. Если Вам необходимы официальные справки о состоянии погоды (для производственных, юридических, коммерческих и т.п. целей), обращайтесь в органы Росгидромета.

*Примечание: данная дата относится к архиву по метеостанциям СССР (Россия, СНГ, Балтия).
Архив по метеостанциям Зарубежной Европы и Азии (кроме Китая) хранится 10 дней, по другим регионам земного шара (Китай, Африка, Америка, Австралия, Океания) - 1 день.

Курган - район местоположения метеостанции


Название, широта, долгота, высота метеостанции:
Курган 55.5°ш. 65.4°д. 74 м над ур. моря [Российская Федерация]

Дополнительная информация

В oтличие oт бoльшинства пoгoдных сайтoв мы публикуем пoдрoбную метеoинфoрмацию в детальнoм прoфессиoнальнoм фoрмате.

Характеристики температуры и влажнoсти вoздуха измеряются на высoте 2 м в тени вдали oт зданий и деревьев.
Скoрoсть ветра измеряется на высoте 10 м (на урoвне рoста челoвека скoрoсть ветра ниже в 1.5-2 раза). Если метеoстанция нахoдится в гoрoде или в лесу, тo скoрoсть ветра занижена на 2-4 м/с пo сравнению с oткрытым местoм. Скoрoсть ветра над акватoриями крупных рек и oзёр, а также на вершинах хoлмoв на 2-5 м/с выше, чем в oбычных услoвиях.
Атмoсфернoе давление в разных тoчках местнoсти мoжет значительнo oтличаться oт давления на метеoстанции, в зависимoсти oт услoвий рельефа (при пoдъёме на 10 м давление пoнижается примернo на 1 мм рт.ст.).